This is the latest recevied weather packets stored in our database for station/object N5JXS. If no packets are shown the sender has not sent any weather packets the latest 10 day(s).
| Time | Temp. | Humidity | Pressure | Rain* | Wind** | Luminosity | Snow |
|---|---|---|---|---|---|---|---|
| 1788312119 | 21.67° C | 49% | 1024.6 hPa | 0 mm | - | 2 W/m² | - |
| 1788311814 | 21.67° C | 46% | 1024.6 hPa | 0 mm | - | 3 W/m² | - |
| 1788311509 | 21.67° C | 42% | 1024.5 hPa | 0 mm | - | 7 W/m² | - |
| 1788311208 | 22.22° C | 41% | 1024.5 hPa | 0 mm | - | 7 W/m² | - |
| 1788310904 | 22.22° C | 41% | 1024.6 hPa | 0 mm | - | 6 W/m² | - |
| 1788310602 | 22.78° C | 40% | 1024.4 hPa | 0 mm | - | 10 W/m² | - |
| 1788310298 | 22.78° C | 40% | 1024.6 hPa | 0 mm | - | 11 W/m² | - |
| 1788309998 | 23.33° C | 39% | 1024.5 hPa | 0 mm | - | 12 W/m² | - |
| 1788309692 | 23.33° C | 38% | 1024.2 hPa | 0 mm | - | 18 W/m² | - |
| 1788309388 | 23.33° C | 39% | 1024.4 hPa | 0 mm | - | 23 W/m² | - |
| 1788309083 | 23.89° C | 37% | 1024.2 hPa | 0 mm | - | 26 W/m² | - |
| 1788308779 | 23.89° C | 37% | 1024.4 hPa | 0 mm | - | 30 W/m² | - |
| 1788308474 | 24.44° C | 36% | 1024.2 hPa | 0 mm | - | 43 W/m² | - |
| 1788308169 | 25° C | 33% | 1024 hPa | 0 mm | - | 42 W/m² | - |
| 1788307863 | 25° C | 29% | 1024.2 hPa | 0 mm | - | 55 W/m² | - |
| 1788307559 | 25° C | 29% | 1024.1 hPa | 0 mm | - | 54 W/m² | - |
| 1788307254 | 25° C | 30% | 1024.1 hPa | 0 mm | - | 58 W/m² | - |
| 1788306953 | 24.44° C | 30% | 1024 hPa | 0 mm | - | 91 W/m² | - |
| 1788306649 | 25° C | 29% | 1024.1 hPa | 0 mm | - | 45 W/m² | - |
| 1788306348 | 25° C | 28% | 1023.9 hPa | 0 mm | - | 47 W/m² | - |
| 1788306043 | 25.56° C | 28% | 1024.1 hPa | 0 mm | - | 48 W/m² | - |
| 1788305743 | 26.11° C | 27% | 1024.1 hPa | 0 mm | - | 59 W/m² | - |
| 1788305439 | 26.67° C | 27% | 1024.2 hPa | 0 mm | - | 130 W/m² | - |
| 1788305134 | 26.67° C | 28% | 1024.1 hPa | 0 mm | - | 92 W/m² | - |
| 1788304829 | 25.56° C | 28% | 1024.1 hPa | 0 mm | - | 99 W/m² | - |
* Rain latest hour (hover to see other rain measurements)
** Current wind speed in m/s (hover to see current wind gust speed)